TimeEST,TemperatureF,Dew PointF,Humidity,Sea Level PressureIn,VisibilityMPH,Wind Direction,Wind SpeedMPH,Gust SpeedMPH,PrecipitationIn,Events,Conditions,WindDirDegrees,DateUTC
12:15 AM,48.2,46.2,93,30.28,10.0,Calm,Calm,-,N/A,,Clear,0,2012-12-04 05:15:00
12:35 AM,47.8,45.9,93,30.28,7.0,Calm,Calm,-,N/A,,Clear,0,2012-12-04 05:35:00
12:55 AM,47.1,45.3,93,30.27,7.0,Calm,Calm,-,N/A,,Clear,0,2012-12-04 05:55:00
1:15 AM,46.9,45.3,94,30.27,5.0,Calm,Calm,-,N/A,,Clear,0,2012-12-04 06:15:00
1:35 AM,46.4,44.8,94,30.27,7.0,Calm,Calm,-,N/A,,Clear,0,2012-12-04 06:35:00
1:55 AM,45.9,44.2,94,30.27,2.5,Calm,Calm,-,N/A,,Clear,0,2012-12-04 06:55:00
2:15 AM,45.9,44.2,94,30.27,7.0,Calm,Calm,-,N/A,,Clear,0,2012-12-04 07:15:00
2:35 AM,45.3,43.9,95,30.27,5.0,Calm,Calm,-,N/A,,Clear,0,2012-12-04 07:35:00
2:55 AM,44.8,43.0,93,30.27,5.0,Calm,Calm,-,N/A,,Clear,0,2012-12-04 07:55:00
3:15 AM,44.8,43.2,94,30.27,10.0,Calm,Calm,-,N/A,,Clear,0,2012-12-04 08:15:00
3:55 AM,43.9,42.4,95,30.27,7.0,Calm,Calm,-,N/A,,Scattered Clouds,0,2012-12-04 08:55:00
4:15 AM,43.7,42.1,94,30.27,3.0,Calm,Calm,-,N/A,,Scattered Clouds,0,2012-12-04 09:15:00
4:35 AM,43.2,41.7,95,30.27,4.0,Calm,Calm,-,N/A,,Clear,0,2012-12-04 09:35:00
4:55 AM,43.0,41.5,95,30.27,1.0,Calm,Calm,-,N/A,,Overcast,0,2012-12-04 09:55:00
5:15 AM,42.8,41.4,95,30.27,0.8,Calm,Calm,-,N/A,,Overcast,0,2012-12-04 10:15:00
5:35 AM,42.6,41.2,95,30.28,1.5,Calm,Calm,-,N/A,,Mostly Cloudy,0,2012-12-04 10:35:00
5:55 AM,42.4,41.0,95,30.28,0.5,Calm,Calm,-,N/A,Fog,Fog,0,2012-12-04 10:55:00
6:15 AM,42.1,40.6,95,30.28,0.2,Calm,Calm,-,N/A,Fog,Fog,0,2012-12-04 11:15:00
6:35 AM,41.7,40.3,95,30.29,0.2,Calm,Calm,-,N/A,Fog,Fog,0,2012-12-04 11:35:00
6:55 AM,41.7,40.5,95,30.30,0.2,Calm,Calm,-,N/A,Fog,Fog,0,2012-12-04 11:55:00
7:15 AM,41.5,40.1,95,30.31,0.2,Calm,Calm,-,N/A,Fog,Fog,0,2012-12-04 12:15:00
7:35 AM,41.7,40.5,95,30.31,0.5,Calm,Calm,-,N/A,Fog,Fog,0,2012-12-04 12:35:00
7:55 AM,42.8,41.5,95,30.31,0.5,Calm,Calm,-,N/A,Fog,Fog,0,2012-12-04 12:55:00
8:15 AM,45.5,44.2,95,30.31,1.5,Calm,Calm,-,N/A,,Mostly Cloudy,0,2012-12-04 13:15:00
8:35 AM,48.7,47.5,95,30.32,1.8,Calm,Calm,-,N/A,,Scattered Clouds,0,2012-12-04 13:35:00
8:55 AM,52.3,50.9,95,30.32,4.0,Calm,Calm,-,N/A,,Clear,0,2012-12-04 13:55:00
9:15 AM,55.4,52.5,90,30.32,5.0,Calm,Calm,-,N/A,,Scattered Clouds,0,2012-12-04 14:15:00
9:35 AM,59.7,53.6,80,30.33,10.0,Calm,Calm,-,N/A,,Scattered Clouds,0,2012-12-04 14:35:00
9:55 AM,61.7,54.1,76,30.33,10.0,Calm,Calm,-,N/A,,Scattered Clouds,0,2012-12-04 14:55:00
10:15 AM,62.8,54.3,74,30.33,10.0,SW,3.5,-,N/A,,Scattered Clouds,230,2012-12-04 15:15:00
10:35 AM,64.2,54.7,71,30.32,10.0,Calm,Calm,-,N/A,,Clear,0,2012-12-04 15:35:00
10:55 AM,66.9,54.9,65,30.31,10.0,SSW,4.6,-,N/A,,Scattered Clouds,200,2012-12-04 15:55:00
11:15 AM,68.7,54.7,61,30.30,10.0,SW,3.5,-,N/A,,Mostly Cloudy,230,2012-12-04 16:15:00
11:35 AM,69.4,54.3,59,30.29,10.0,SW,3.5,-,N/A,,Mostly Cloudy,230,2012-12-04 16:35:00
11:55 AM,71.1,53.8,54,30.28,10.0,SW,6.9,-,N/A,,Scattered Clouds,230,2012-12-04 16:55:00
12:15 PM,72.0,53.8,53,30.27,10.0,WSW,8.1,-,N/A,,Mostly Cloudy,240,2012-12-04 17:15:00
12:35 PM,73.2,53.4,50,30.26,10.0,SW,8.1,17.3,N/A,,Mostly Cloudy,220,2012-12-04 17:35:00
1:15 PM,73.2,53.2,49,30.24,10.0,WSW,9.2,-,N/A,,Mostly Cloudy,240,2012-12-04 18:15:00
1:35 PM,73.8,52.5,47,30.23,10.0,WSW,11.5,16.1,N/A,,Scattered Clouds,240,2012-12-04 18:35:00
1:55 PM,72.5,52.3,49,30.22,10.0,SSW,9.2,-,N/A,,Mostly Cloudy,210,2012-12-04 18:55:00
2:15 PM,73.4,52.3,48,30.22,10.0,WSW,9.2,-,N/A,,Scattered Clouds,240,2012-12-04 19:15:00
2:35 PM,72.9,52.2,48,30.21,10.0,SSW,6.9,-,N/A,,Mostly Cloudy,210,2012-12-04 19:35:00
2:55 PM,72.0,52.2,50,30.21,10.0,SW,10.4,-,N/A,,Overcast,230,2012-12-04 19:55:00
3:15 PM,71.8,52.2,50,30.21,10.0,SW,6.9,-,N/A,,Overcast,230,2012-12-04 20:15:00
3:35 PM,72.0,52.5,50,30.21,10.0,SW,6.9,-,N/A,,Mostly Cloudy,220,2012-12-04 20:35:00
3:55 PM,71.6,52.3,51,30.21,10.0,SSW,5.8,-,N/A,,Mostly Cloudy,210,2012-12-04 20:55:00
4:15 PM,71.2,52.7,52,30.20,10.0,SW,6.9,-,N/A,,Scattered Clouds,220,2012-12-04 21:15:00
4:35 PM,69.4,52.7,55,30.21,10.0,SSW,4.6,-,N/A,,Scattered Clouds,210,2012-12-04 21:35:00
4:55 PM,67.6,52.9,59,30.21,10.0,SSW,3.5,-,N/A,,Clear,210,2012-12-04 21:55:00
5:15 PM,65.3,53.1,65,30.21,10.0,South,3.5,-,N/A,,Clear,190,2012-12-04 22:15:00
5:35 PM,62.8,52.9,70,30.20,10.0,South,4.6,-,N/A,,Clear,190,2012-12-04 22:35:00
5:55 PM,60.6,52.2,74,30.20,10.0,SSW,4.6,-,N/A,,Clear,200,2012-12-04 22:55:00
6:15 PM,62.1,52.3,70,30.21,10.0,SW,4.6,-,N/A,,Clear,230,2012-12-04 23:15:00
6:35 PM,58.1,51.3,78,30.21,10.0,SSW,3.5,-,N/A,,Clear,210,2012-12-04 23:35:00
6:55 PM,54.9,50.5,85,30.21,10.0,Calm,Calm,-,N/A,,Clear,0,2012-12-04 23:55:00
7:15 PM,53.4,49.5,86,30.21,10.0,Calm,Calm,-,N/A,,Clear,0,2012-12-05 00:15:00
7:35 PM,51.4,48.9,91,30.21,10.0,South,3.5,-,N/A,,Clear,170,2012-12-05 00:35:00
7:55 PM,50.5,48.6,93,30.21,10.0,South,4.6,-,N/A,,Clear,180,2012-12-05 00:55:00
8:15 PM,54.1,50.9,89,30.21,10.0,South,4.6,-,N/A,,Clear,190,2012-12-05 01:15:00
8:35 PM,57.4,52.9,85,30.21,10.0,South,5.8,-,N/A,,Clear,190,2012-12-05 01:35:00
8:55 PM,59.7,54.5,83,30.21,10.0,South,5.8,-,N/A,,Clear,190,2012-12-05 01:55:00
9:15 PM,60.4,55.2,83,30.20,10.0,SSW,6.9,-,N/A,,Clear,210,2012-12-05 02:15:00
9:35 PM,61.2,56.1,83,30.20,10.0,SSW,5.8,-,N/A,,Clear,200,2012-12-05 02:35:00
9:55 PM,61.3,56.3,83,30.20,10.0,SSW,6.9,-,N/A,,Clear,210,2012-12-05 02:55:00
10:15 PM,61.0,56.3,85,30.20,10.0,SSW,6.9,-,N/A,,Clear,200,2012-12-05 03:15:00
10:35 PM,60.6,56.5,86,30.19,10.0,SSW,5.8,-,N/A,,Clear,200,2012-12-05 03:35:00
10:55 PM,60.1,56.3,87,30.20,10.0,SSW,6.9,-,N/A,,Clear,200,2012-12-05 03:55:00
11:15 PM,59.9,56.5,88,30.19,10.0,SSW,6.9,-,N/A,,Clear,200,2012-12-05 04:15:00
11:35 PM,59.7,56.5,89,30.19,10.0,SSW,5.8,-,N/A,,Clear,200,2012-12-05 04:35:00
11:55 PM,59.0,56.3,91,30.18,10.0,SSW,5.8,-,N/A,,Clear,210,2012-12-05 04:55:00